Trenton, NJ

6:16 AM EDT on August 17, 2017 (GMT -0400)
Trenton Mercer

Weather History for KTTN - May, 2013

Change the Weather History Date:

Monday, May 6, 2013

  Actual Average Record
Temperature  
Mean Temperature 57 °F 58 °F  
Max Temperature 68 °F 69 °F 91 °F (1949)
Min Temperature 45 °F 47 °F 36 °F (1891)
Degree Days  
Heating Degree Days 8 8  
Month to date heating degree days 62 51  
Since 1 July heating degree days 4836 5019  
Cooling Degree Days 0 1  
Month to date cooling degree days 0 6  
Year to date cooling degree days 14 14  
Growing Degree Days 5 (Base 50)    
Moisture  
Dew Point 47 °F    
Average Humidity 75    
Maximum Humidity 92    
Minimum Humidity 58    
Precipitation  
Precipitation 0.00 in 0.12 in 1.30 in (1991)
Month to date precipitation 0.00 0.60  
Year to date precipitation 9.48 13.75  
Sea Level Pressure  
Sea Level Pressure 30.19 in    
Wind  
Wind Speed 6 mph (ESE)    
Max Wind Speed 15 mph    
Max Gust Speed 18 mph    
Visibility 9 miles    
Events      
T = Trace of Precipitation, MM = Missing Value Source: NWS Daily Summary

Daily Weather History Graph

Daily Weather History Graph

Search for Another Location

Airport or City:

Trip Planner

Search our weather history database for the weather conditions in past years. The results will help you decide how hot, cold, wet, or windy it might be!

Date:

Astronomy

May. 06, 2013 Rise Set
Actual Time 5:52 AM EDT 7:59 PM EDT
Civil Twilight 5:22 AM EDT 8:29 PM EDT
Nautical Twilight 4:45 AM EDT 9:06 PM EDT
Astronomical Twilight 4:05 AM EDT 9:46 PM EDT
Moon 3:53 AM EDT (5/6) 4:57 PM EDT (5/6)
Length of Visible Light 15h 07m
Length of Day
14h 07m
Waning Crescent, 11% of the Moon is Illuminated
May 6
Waning Crescent
May 9
New
May 18
First Quarter
May 25
Full
May 31
Last Quarter

Hourly Weather History & Observations

Time (EDT) Temp. Windchill Dew Point Humidity Pressure Visibility Wind Dir Wind Speed Gust Speed Precip Events Conditions
12:18 AM 44.6 °F 42.2 °F 41.0 °F 87% 30.24 in 10.0 mi ESE 4.6 mph - N/A   Mostly Cloudy
12:30 AM 44.6 °F 40.2 °F 41.0 °F 87% 30.23 in 10.0 mi ESE 8.1 mph - N/A   Overcast
12:53 AM 45.0 °F 41.2 °F 41.0 °F 86% 30.22 in 9.0 mi ESE 6.9 mph - N/A   Overcast
1:53 AM 45.0 °F 42.6 °F 42.1 °F 90% 30.20 in 9.0 mi East 4.6 mph - N/A   Overcast
2:53 AM 46.0 °F 42.5 °F 43.0 °F 89% 30.19 in 9.0 mi ENE 6.9 mph - N/A   Overcast
3:53 AM 46.0 °F 43.1 °F 43.0 °F 89% 30.19 in 9.0 mi NE 5.8 mph - N/A   Overcast
4:53 AM 46.0 °F 44.8 °F 43.0 °F 89% 30.19 in 9.0 mi ESE 3.5 mph - N/A   Overcast
5:53 AM 48.0 °F - 44.1 °F 86% 30.20 in 9.0 mi Calm Calm - N/A   Overcast
6:53 AM 48.9 °F - 45.0 °F 86% 30.22 in 7.0 mi ESE 3.5 mph - N/A   Overcast
7:53 AM 50.0 °F - 45.0 °F 83% 30.23 in 8.0 mi East 3.5 mph - N/A   Overcast
8:51 AM 51.8 °F - 46.4 °F 82% 30.25 in 8.0 mi ESE 6.9 mph - N/A   Overcast
8:53 AM 52.0 °F - 46.0 °F 80% 30.23 in 8.0 mi East 6.9 mph - N/A   Overcast
9:03 AM 51.8 °F - 46.4 °F 82% 30.24 in 9.0 mi East 6.9 mph - N/A   Overcast
9:53 AM 53.1 °F - 46.9 °F 80% 30.23 in 9.0 mi East 8.1 mph - N/A   Overcast
10:53 AM 55.9 °F - 48.0 °F 75% 30.23 in 10.0 mi SE 8.1 mph - N/A   Overcast
11:53 AM 57.0 °F - 48.0 °F 72% 30.22 in 10.0 mi SSE 8.1 mph - N/A   Overcast
12:53 PM 60.1 °F - 50.0 °F 69% 30.19 in 10.0 mi East 10.4 mph - N/A   Overcast
1:40 PM 62.6 °F - 51.8 °F 68% 30.20 in 10.0 mi SE 10.4 mph - N/A   Scattered Clouds
1:53 PM 63.0 °F - 51.1 °F 65% 30.18 in 10.0 mi South 6.9 mph - N/A   Scattered Clouds
2:53 PM 64.9 °F - 50.0 °F 58% 30.15 in 10.0 mi Variable 3.5 mph - N/A   Clear
3:53 PM 66.9 °F - 51.1 °F 57% 30.13 in 10.0 mi ESE 8.1 mph - N/A   Mostly Cloudy
4:53 PM 66.9 °F - 52.0 °F 59% 30.12 in 10.0 mi ESE 10.4 mph - N/A   Partly Cloudy
5:53 PM 64.9 °F - 53.1 °F 65% 30.12 in 10.0 mi South 12.7 mph 18.4 mph N/A   Clear
6:53 PM 62.1 °F - 52.0 °F 70% 30.13 in 10.0 mi SSE 10.4 mph - N/A   Mostly Cloudy
7:04 PM 60.8 °F - 51.8 °F 72% 30.14 in 10.0 mi SE 8.1 mph - N/A   Partly Cloudy
7:53 PM 59.0 °F - 50.0 °F 72% 30.13 in 10.0 mi SE 6.9 mph - N/A   Clear
8:53 PM 57.0 °F - 50.0 °F 77% 30.14 in 10.0 mi ESE 3.5 mph - N/A   Clear
9:53 PM 55.0 °F - 50.0 °F 83% 30.15 in 10.0 mi East 4.6 mph - N/A   Clear
10:53 PM 54.0 °F - 50.0 °F 86% 30.15 in 10.0 mi Calm Calm - N/A   Partly Cloudy
11:53 PM 52.0 °F - 48.9 °F 89% 30.14 in 10.0 mi East 3.5 mph - N/A   Scattered Clouds